FW2927 Weather Reports


time (UTC)temp
C
wind
direction
speed
KPH
gust
KPH
rain 1hr
cm
rain 24hr
cm
rain mn
cm
humidity
%
barometer
mb
20260506213008 15 330 0.0 6.4 0.00 1.40 1.14 58 1014.3
20260506211510 15 292 1.6 8.0 0.00 1.40 1.14 57 1014.6
20260506210010 15 277 0.0 6.4 0.00 1.40 1.14 53 1014.3
20260506204511 16 186 0.0 4.8 0.00 1.40 1.14 57 1014.6
20260506203010 15 244 0.0 6.4 0.00 1.40 1.14 56 1014.4
20260506201516 16 154 1.6 8.0 0.00 1.40 1.14 56 1014.2
20260506200011 15 313 0.0 8.0 0.00 1.40 1.14 56 1014.4
20260506194516 16 319 3.2 9.7 0.00 1.40 1.14 54 1014.6
20260506193010 16 81 1.6 8.0 0.00 1.40 1.14 55 1014.6
20260506191510 16 298 3.2 11.3 0.00 1.40 1.14 56 1014.1
20260506190009 16 307 3.2 11.3 0.00 1.40 1.14 54 1014.2
20260506184508 16 10 1.6 8.0 0.00 1.40 1.14 56 1014.4
20260506183007 16 302 1.6 8.0 0.00 1.40 1.14 61 1014.2
20260506181501 15 209 1.6 12.9 0.00 1.40 1.14 59 1014.1
20260506180106 15 227 0.0 8.0 0.00 1.40 1.14 60 1014.3
20260506174601 15 301 3.2 16.1 0.00 1.40 1.14 59 1014.1
20260506173059 15 360 3.2 12.9 0.00 1.40 1.14 60 1014.1
20260506171601 15 296 3.2 8.0 0.00 1.40 1.14 61 1014.6
20260506170105 14 57 1.6 14.5 0.00 1.40 1.14 66 1014.6
20260506164602 14 335 0.0 9.7 0.00 1.40 1.14 65 1014.8
20260506163112 13 331 3.2 14.5 0.00 1.40 1.14 62 1014.8
20260506161552 13 22 0.0 8.0 0.00 1.40 1.14 68 1014.8
20260506160051 13 294 1.6 8.0 0.00 1.40 1.14 67 1015.1
20260506154607 12 297 1.6 6.4 0.00 1.40 1.14 70 1014.6
20260506153055 12 307 3.2 9.7 0.00 1.40 1.14 71 1014.4
20260506151548 12 329 1.6 8.0 0.00 1.40 1.14 73 1014.3
20260506150047 11 285 1.6 8.0 0.00 1.40 1.14 73 1014.3
20260506144546 11 338 1.6 8.0 0.00 1.40 1.14 79 1014.3
20260506143059 10 296 3.2 8.0 0.00 1.40 1.14 79 1014.0
20260506141545 10 296 1.6 4.8 0.00 1.40 1.14 82 1014.3
20260506140042 9 319 0.0 8.0 0.00 1.40 1.14 85 1013.5
20260506134542 8 339 0.0 8.0 0.00 1.40 1.14 85 1013.4
20260506133041 8 337 0.0 4.8 0.00 1.40 1.14 86 1013.3
20260506131538 8 323 1.6 8.0 0.00 1.40 1.14 87 1013.2
20260506130036 7 306 0.0 8.0 0.00 1.40 1.14 88 1013.1
20260506124535 7 332 0.0 1.6 0.00 1.40 1.14 89 1012.9
20260506123035 7 332 0.0 4.8 0.00 1.40 1.14 89 1012.9
20260506121541 7 331 0.0 8.0 0.00 1.40 1.14 89 1012.8
20260506120036 7 317 1.6 6.4 0.00 1.40 1.14 90 1012.9
20260506114542 7 234 0.0 3.2 0.00 1.40 1.14 90 1012.7
20260506113033 7 325 1.6 6.4 0.00 1.40 1.14 90 1012.4
20260506111536 7 346 1.6 6.4 0.00 1.40 1.14 91 1011.9
20260506110030 7 329 1.6 4.8 0.00 1.40 1.14 91 1011.8
20260506104525 7 338 3.2 8.0 0.00 1.40 1.14 92 1011.2
20260506103024 8 333 1.6 8.0 0.00 1.40 1.14 92 1011.3
20260506101521 8 335 1.6 6.4 0.00 1.40 1.14 92 1010.3
20260506100019 8 335 1.6 4.8 0.03 1.40 1.14 93 1010.4
20260506094519 8 311 3.2 8.0 0.03 1.40 1.14 93 1010.2
20260506093016 8 300 0.0 8.0 0.03 1.40 1.14 93 1010.1
20260506091514 8 326 0.0 6.4 0.03 1.40 1.14 93 1010.0
20260506090012 8 323 1.6 4.8 0.03 1.40 1.14 93 1010.2
20260506084512 9 343 3.2 9.7 0.03 1.37 1.12 93 1009.9
20260506083008 9 325 3.2 6.4 0.05 1.37 1.12 93 1009.7
20260506081508 9 350 0.0 6.4 0.10 1.37 1.12 94 1009.1
20260506073109 10 311 3.2 17.7 0.20 1.32 1.07 93 1008.4
20260506071500 10 316 3.2 6.4 0.20 1.27 1.02 93 1008.0
20260506070106 10 300 3.2 9.7 0.20 1.22 0.97 93 1008.0
20260506044544 15 196 0.0 4.8 0.10 0.36 0.10 92 1007.3
20260506043035 15 288 1.6 6.4 0.03 0.25 0.00 92 1007.3
20260506040051 15 211 0.0 4.8 0.13 0.25 0.25 92 1006.7
20260506034529 15 223 0.0 4.8 0.13 0.25 0.25 91 1006.9
20260506033029 15 180 1.6 4.8 0.13 0.23 0.23 91 1007.3
20260506030026 15 119 1.6 8.0 0.05 0.15 0.15 91 1007.9
20260506024528 16 204 1.6 9.7 0.03 0.13 0.13 91 1008.0
20260506023025 16 191 4.8 11.3 0.00 0.10 0.10 91 1008.2
20260506020030 16 206 0.0 3.2 0.00 0.10 0.10 90 1008.0
20260506014533 16 206 0.0 0.0 0.00 0.10 0.10 90 1007.7
20260506013029 16 206 0.0 1.6 0.03 0.10 0.10 90 1007.3
20260506010028 16 206 0.0 1.6 0.05 0.10 0.10 89 1007.1
20260506004527 16 206 0.0 0.0 0.08 0.10 0.10 89 1007.1
20260506003024 16 206 0.0 0.0 0.05 0.08 0.08 89 1007.1
20260506000021 16 206 0.0 8.0 0.05 0.05 0.05 88 1007.1
20260505234518 16 218 0.0 3.2 0.03 0.03 0.03 88 1007.3
20260505233017 16 217 0.0 1.6 0.03 0.03 0.03 88 1007.3